Location: Kawakawa
(35.3830°S, 174.0670°E)
Time: 19:42:41
(UTC+13:00)

Explorer 7 - Pass Details

Date: 13 December 2019
Orbit: 485 x 679 km, 50.3° (Epoch: 26 January)

Event Time Altitude Azimuth Distance (km) Brightness Sun altitude
Rises 04:46:02 0° 287° (WNW) 2,633 - -13.5°
Reaches altitude 10° 04:48:26 10° 276° (W) 1,727 - -13.1°
Exits shadow 04:49:08 14° 270° (W) 1,487 8.6 -13.0°
Maximum altitude 04:51:56 31° 212° (SSW) 900 8.0 -12.6°
Drops below altitude 10° 04:55:23 10° 148° (SSE) 1,697 10.6 -12.0°
Sets 04:57:44 0° 137° (SE) 2,579 12.3 -11.7°
